Time,TemperatureF,DewpointF,PressureIn,WindDirection,WindDirectionDegrees,WindSpeedMPH,WindSpeedGustMPH,Humidity,HourlyPrecipIn,Conditions,Clouds,dailyrainin,SoftwareType,DateUTC
2013-07-28 00:11:00,71.8,68.0,29.89,South,190,0.0,-999.0,87,-99.99,,,0.00,weatherlink.com 1.10,2013-07-28 05:11:00,
2013-07-28 00:26:00,71.7,67.0,29.88,South,190,0.0,-999.0,86,-99.99,,,0.00,weatherlink.com 1.10,2013-07-28 05:26:00,
2013-07-28 00:41:00,71.9,68.0,29.88,South,190,0.0,-999.0,87,-99.99,,,0.00,weatherlink.com 1.10,2013-07-28 05:41:00,
2013-07-28 00:56:00,71.8,68.0,29.88,South,190,0.0,-999.0,87,-99.99,,,0.00,weatherlink.com 1.10,2013-07-28 05:56:00,
2013-07-28 01:11:00,71.9,68.0,29.88,South,190,0.0,-999.0,87,-99.99,,,0.00,weatherlink.com 1.10,2013-07-28 06:11:00,
2013-07-28 01:26:00,71.7,68.0,29.87,South,190,0.0,-999.0,87,-99.99,,,0.00,weatherlink.com 1.10,2013-07-28 06:26:00,
2013-07-28 01:41:00,71.6,68.0,29.87,South,190,0.0,-999.0,87,-99.99,,,0.00,weatherlink.com 1.10,2013-07-28 06:41:00,
2013-07-28 01:56:00,71.4,67.0,29.88,South,190,0.0,-999.0,87,-99.99,,,0.00,weatherlink.com 1.10,2013-07-28 06:56:00,
2013-07-28 02:11:00,71.6,68.0,29.88,South,190,0.0,-999.0,88,-99.99,,,0.00,weatherlink.com 1.10,2013-07-28 07:11:00,
2013-07-28 02:26:00,71.6,67.0,29.88,South,190,0.0,-999.0,86,-99.99,,,0.00,weatherlink.com 1.10,2013-07-28 07:26:00,
2013-07-28 02:42:00,71.4,67.0,29.88,South,190,0.0,-999.0,87,-99.99,,,0.00,weatherlink.com 1.10,2013-07-28 07:42:00,
2013-07-28 02:56:00,71.6,68.0,29.88,SSW,198,0.0,-999.0,87,-99.99,,,0.00,weatherlink.com 1.10,2013-07-28 07:56:00,
2013-07-28 03:11:00,71.4,67.0,29.89,SSW,198,0.0,-999.0,87,-99.99,,,0.00,weatherlink.com 1.10,2013-07-28 08:11:00,
2013-07-28 03:26:00,71.6,68.0,29.89,SSE,156,0.0,-999.0,87,-99.99,,,0.00,weatherlink.com 1.10,2013-07-28 08:26:00,
2013-07-28 03:41:00,71.7,68.0,29.89,SSE,157,0.0,-999.0,88,-99.99,,,0.00,weatherlink.com 1.10,2013-07-28 08:41:00,
2013-07-28 03:56:00,71.7,68.0,29.89,SSE,157,0.0,-999.0,88,-99.99,,,0.00,weatherlink.com 1.10,2013-07-28 08:56:00,
2013-07-28 04:11:00,71.6,68.0,29.88,SSE,157,0.0,-999.0,88,-99.99,,,0.00,weatherlink.com 1.10,2013-07-28 09:11:00,
2013-07-28 04:26:00,71.3,68.0,29.89,South,178,0.0,-999.0,90,-99.99,,,0.00,weatherlink.com 1.10,2013-07-28 09:26:00,
2013-07-28 04:41:00,71.6,68.0,29.88,South,181,0.0,-999.0,89,-99.99,,,0.00,weatherlink.com 1.10,2013-07-28 09:41:00,
2013-07-28 04:56:00,71.3,68.0,29.89,South,181,0.0,-999.0,88,-99.99,,,0.00,weatherlink.com 1.10,2013-07-28 09:56:00,
2013-07-28 05:11:00,71.0,68.0,29.90,South,181,0.0,-999.0,89,-99.99,,,0.00,weatherlink.com 1.10,2013-07-28 10:11:00,
2013-07-28 05:27:00,70.4,67.0,29.91,South,181,0.0,-999.0,90,-99.99,,,0.00,weatherlink.com 1.10,2013-07-28 10:27:00,
2013-07-28 05:41:00,69.7,67.0,29.91,South,181,0.0,-999.0,91,-99.99,,,0.00,weatherlink.com 1.10,2013-07-28 10:41:00,
2013-07-28 05:56:00,69.8,67.0,29.91,South,181,0.0,-999.0,92,-99.99,,,0.00,weatherlink.com 1.10,2013-07-28 10:56:00,
2013-07-28 06:11:00,70.0,68.0,29.92,South,181,0.0,-999.0,92,-99.99,,,0.00,weatherlink.com 1.10,2013-07-28 11:11:00,
2013-07-28 06:41:00,70.3,68.0,29.93,South,181,0.0,-999.0,93,-99.99,,,0.00,weatherlink.com 1.10,2013-07-28 11:41:00,
2013-07-28 07:11:00,71.2,69.0,29.92,South,179,0.0,-999.0,92,-99.99,,,0.00,weatherlink.com 1.10,2013-07-28 12:11:00,
2013-07-28 07:26:00,72.6,69.0,29.93,SSW,198,0.0,-999.0,89,-99.99,,,0.00,weatherlink.com 1.10,2013-07-28 12:26:00,
2013-07-28 07:56:00,74.6,69.0,29.94,North,9,0.0,-999.0,83,-99.99,,,0.00,weatherlink.com 1.10,2013-07-28 12:56:00,
2013-07-28 08:12:00,75.0,70.0,29.94,NNE,30,0.0,-999.0,83,-99.99,,,0.00,weatherlink.com 1.10,2013-07-28 13:12:00,
2013-07-28 08:26:00,75.2,69.0,29.94,NNW,348,0.0,-999.0,82,-99.99,,,0.00,weatherlink.com 1.10,2013-07-28 13:26:00,
2013-07-28 08:56:00,76.1,70.0,29.95,North,5,0.0,-999.0,81,-99.99,,,0.00,weatherlink.com 1.10,2013-07-28 13:56:00,
2013-07-28 09:11:00,76.4,70.0,29.95,North,5,0.0,-999.0,80,-99.99,,,0.00,weatherlink.com 1.10,2013-07-28 14:11:00,
2013-07-28 09:41:00,77.3,70.0,29.95,North,360,0.0,-999.0,78,-99.99,,,0.00,weatherlink.com 1.10,2013-07-28 14:41:00,
2013-07-28 09:56:00,78.0,70.0,29.96,NNW,338,0.0,-999.0,76,-99.99,,,0.00,weatherlink.com 1.10,2013-07-28 14:56:00,
2013-07-28 10:26:00,79.2,71.0,29.96,NNE,12,0.0,-999.0,75,-99.99,,,0.00,weatherlink.com 1.10,2013-07-28 15:26:00,
2013-07-28 10:41:00,80.1,70.0,29.96,NNE,26,0.0,-999.0,72,-99.99,,,0.00,weatherlink.com 1.10,2013-07-28 15:41:00,
2013-07-28 10:57:00,80.5,71.0,29.96,NNW,342,0.0,-999.0,73,-99.99,,,0.00,weatherlink.com 1.10,2013-07-28 15:57:00,
2013-07-28 11:11:00,81.1,71.0,29.96,NW,323,0.0,-999.0,71,-99.99,,,0.00,weatherlink.com 1.10,2013-07-28 16:11:00,
2013-07-28 11:26:00,81.9,70.0,29.96,North,355,0.0,-999.0,67,-99.99,,,0.00,weatherlink.com 1.10,2013-07-28 16:26:00,
2013-07-28 11:41:00,82.9,71.0,29.96,NW,319,0.0,-999.0,67,-99.99,,,0.00,weatherlink.com 1.10,2013-07-28 16:41:00,
2013-07-28 12:11:00,82.8,70.0,29.95,North,5,0.0,-999.0,65,-99.99,,,0.00,weatherlink.com 1.10,2013-07-28 17:11:00,
2013-07-28 12:26:00,82.1,69.0,29.95,NNE,13,0.0,-999.0,65,-99.99,,,0.00,weatherlink.com 1.10,2013-07-28 17:26:00,
2013-07-28 12:41:00,82.7,69.0,29.95,NE,38,0.0,-999.0,63,-99.99,,,0.00,weatherlink.com 1.10,2013-07-28 17:41:00,
2013-07-28 13:11:00,82.4,70.0,29.94,NNE,13,0.0,-999.0,66,-99.99,,,0.00,weatherlink.com 1.10,2013-07-28 18:11:00,
2013-07-28 13:26:00,82.7,70.0,29.94,NE,46,0.0,-999.0,65,-99.99,,,0.00,weatherlink.com 1.10,2013-07-28 18:26:00,
2013-07-28 13:42:00,83.4,70.0,29.94,NNW,348,0.0,-999.0,64,-99.99,,,0.00,weatherlink.com 1.10,2013-07-28 18:42:00,
2013-07-28 13:56:00,84.0,69.0,29.93,NNW,347,0.0,-999.0,61,-99.99,,,0.00,weatherlink.com 1.10,2013-07-28 18:56:00,
2013-07-28 14:11:00,83.9,69.0,29.93,WNW,296,0.0,-999.0,62,-99.99,,,0.00,weatherlink.com 1.10,2013-07-28 19:11:00,
2013-07-28 14:26:00,84.7,70.0,29.93,NNW,341,0.0,-999.0,62,-99.99,,,0.00,weatherlink.com 1.10,2013-07-28 19:26:00,
2013-07-28 15:26:00,84.7,70.0,29.93,NW,317,0.0,-999.0,61,-99.99,,,0.00,weatherlink.com 1.10,2013-07-28 20:26:00,
2013-07-28 15:41:00,84.1,70.0,29.93,NW,322,0.0,-999.0,62,-99.99,,,0.00,weatherlink.com 1.10,2013-07-28 20:41:00,
2013-07-28 16:11:00,83.7,69.0,29.93,NW,316,0.0,-999.0,61,-99.99,,,0.00,weatherlink.com 1.10,2013-07-28 21:11:00,
2013-07-28 16:27:00,83.8,69.0,29.93,WNW,298,0.0,-999.0,62,-99.99,,,0.00,weatherlink.com 1.10,2013-07-28 21:27:00,
2013-07-28 16:56:00,83.5,69.0,29.93,NNW,346,0.0,-999.0,61,-99.99,,,0.00,weatherlink.com 1.10,2013-07-28 21:56:00,
2013-07-28 17:11:00,84.4,69.0,29.93,NNW,327,0.0,-999.0,60,-99.99,,,0.00,weatherlink.com 1.10,2013-07-28 22:11:00,
2013-07-28 17:26:00,84.0,69.0,29.93,NNW,331,0.0,-999.0,60,-99.99,,,0.00,weatherlink.com 1.10,2013-07-28 22:26:00,
2013-07-28 17:41:00,84.0,69.0,29.93,NW,309,0.0,-999.0,60,-99.99,,,0.00,weatherlink.com 1.10,2013-07-28 22:41:00,
2013-07-28 17:56:00,83.4,70.0,29.93,NNW,327,0.0,-999.0,64,-99.99,,,0.00,weatherlink.com 1.10,2013-07-28 22:56:00,
2013-07-28 18:11:00,82.9,70.0,29.93,North,9,0.0,-999.0,65,-99.99,,,0.00,weatherlink.com 1.10,2013-07-28 23:11:00,
2013-07-28 18:26:00,82.0,70.0,29.93,NNW,329,0.0,-999.0,67,-99.99,,,0.00,weatherlink.com 1.10,2013-07-28 23:26:00,
2013-07-28 18:41:00,81.2,70.0,29.94,NW,315,0.0,-999.0,69,-99.99,,,0.00,weatherlink.com 1.10,2013-07-28 23:41:00,
2013-07-28 18:56:00,80.4,69.0,29.95,NNW,334,0.0,-999.0,69,-99.99,,,0.00,weatherlink.com 1.10,2013-07-28 23:56:00,
2013-07-28 19:12:00,79.8,70.0,29.95,NNW,336,0.0,-999.0,71,-99.99,,,0.00,weatherlink.com 1.10,2013-07-29 00:12:00,
2013-07-28 19:26:00,79.4,69.0,29.96,NNW,338,0.0,-999.0,71,-99.99,,,0.00,weatherlink.com 1.10,2013-07-29 00:26:00,
2013-07-28 19:41:00,78.9,70.0,29.96,NNW,328,0.0,-999.0,73,-99.99,,,0.00,weatherlink.com 1.10,2013-07-29 00:41:00,
2013-07-28 19:56:00,78.3,69.0,29.96,NNW,340,0.0,-999.0,74,-99.99,,,0.00,weatherlink.com 1.10,2013-07-29 00:56:00,
2013-07-28 20:11:00,77.9,69.0,29.96,NNW,333,0.0,-999.0,75,-99.99,,,0.00,weatherlink.com 1.10,2013-07-29 01:11:00,
2013-07-28 20:26:00,77.4,69.0,29.96,NNW,339,0.0,-999.0,74,-99.99,,,0.00,weatherlink.com 1.10,2013-07-29 01:26:00,
2013-07-28 20:41:00,77.1,68.0,29.97,NNE,27,0.0,-999.0,73,-99.99,,,0.00,weatherlink.com 1.10,2013-07-29 01:41:00,
2013-07-28 21:11:00,76.2,68.0,29.98,NNW,348,0.0,-999.0,75,-99.99,,,0.00,weatherlink.com 1.10,2013-07-29 02:11:00,
2013-07-28 21:26:00,75.8,67.0,29.98,NNW,348,0.0,-999.0,74,-99.99,,,0.00,weatherlink.com 1.10,2013-07-29 02:26:00,
2013-07-28 21:41:00,75.6,66.0,29.99,North,5,0.0,-999.0,73,-99.99,,,0.00,weatherlink.com 1.10,2013-07-29 02:41:00,
2013-07-28 21:57:00,75.3,67.0,29.99,NE,40,0.0,-999.0,75,-99.99,,,0.00,weatherlink.com 1.10,2013-07-29 02:57:00,
2013-07-28 22:11:00,74.9,67.0,30.00,NNW,331,0.0,-999.0,77,-99.99,,,0.00,weatherlink.com 1.10,2013-07-29 03:11:00,
2013-07-28 22:26:00,74.6,67.0,30.00,NNE,15,0.0,-999.0,78,-99.99,,,0.00,weatherlink.com 1.10,2013-07-29 03:26:00,
2013-07-28 22:56:00,73.7,68.0,30.00,North,360,0.0,-999.0,81,-99.99,,,0.00,weatherlink.com 1.10,2013-07-29 03:56:00,
2013-07-28 23:11:00,72.8,67.0,30.01,North,360,0.0,-999.0,81,-99.99,,,0.00,weatherlink.com 1.10,2013-07-29 04:11:00,
2013-07-28 23:41:00,73.0,67.0,30.02,North,10,0.0,-999.0,82,-99.99,,,0.00,weatherlink.com 1.10,2013-07-29 04:41:00,
2013-07-28 23:56:00,72.9,67.0,30.02,NE,42,0.0,-999.0,82,-99.99,,,0.00,weatherlink.com 1.10,2013-07-29 04:56:00,